Flag for Switzerland Weather past 2 weeks in La-Chaux-de-Fonds, Neuchâtel, Switzerland

Now
25 °F

Heavy snow. Ice fog.


Feels Like: 17 °F
Forecast: 14 / 25 °F
Wind: 7 mph from West

Location: Les Eplatures

Current Time: Feb 1, 2015 at 3:50:58 PM

Latest Report: Feb 1, 2015 at 3:20 PM


Visibility: 0 mi

Pressure: 29.36 "Hg

Humidity: 93%

Dew point: 23 °F

Location of La-Chaux-de-FondsLocation

Historic Weather in La-Chaux-de-Fonds — Graph

°F

La-Chaux-de-Fonds temperature yesterday

Maximum temperature yesterday: 28 °F (at 11:50 AM)
Minimum temperature yesterday: 18 °F (at 7:20 AM)
Average temperature yesterday: 26 °F

Past Weeks' High & Low Weather Summary

 TemperatureHumidityPressure
High36 °F (Jan 21, 1:50 PM)100% (Jan 18, 12:20 AM)30.30 "Hg (Jan 18, 12:20 AM)
Low10 °F (Jan 18, 4:50 AM)69% (Jan 18, 3:20 PM)28.82 "Hg (Jan 29, 11:20 PM)
Average27 °F90%29.76 "Hg
* Reported Jan 17 2:20 PM — Feb 1 2:50 PM, La-Chaux-de-Fonds, Weather by CustomWeather, © 2014

Note: Actual official high and low records may vary slightly from our data, if they occured in-between our weather recording intervals... More about our weather records

Advertising

La-Chaux-de-Fonds weather history for previous 24 hours

 ConditionsComfort  
Time TempWeatherWind HumidityBarometerVisibility
2:50 PM
Feb 1
27 °FSnow. Broken clouds.7 mph86%29.36 "Hg1 mi
2:20 PM27 °FSnow. Broken clouds.9 mph86%29.33 "Hg1 mi
1:50 PM27 °FSnow. Ice fog.10 mph86%29.33 "Hg1 mi
1:20 PM27 °FSnow. Broken clouds.7 mph86%29.33 "Hg1 mi
12:50 PM27 °FSnow. Broken clouds.8 mph86%29.33 "Hg1 mi
12:20 PM27 °FHeavy snow. Ice fog.7 mph86%29.30 "Hg1 mi
11:50 AM27 °FLight snow. Ice fog.7 mph86%29.30 "Hg0 mi
11:20 AM27 °FLight snow. Broken clouds.6 mph86%29.30 "Hg2 mi
10:50 AM27 °FSnow. Ice fog.7 mph86%29.27 "Hg1 mi
10:20 AM25 °FLight snow. Broken clouds.6 mph93%29.27 "Hg2 mi
9:50 AM25 °FLight snow. Broken clouds.6 mph93%29.24 "HgN/A
9:20 AM25 °FLight snow. Broken clouds.6 mph93%29.24 "HgN/A
8:50 AM25 °FLight snow. Mostly cloudy.7 mph86%29.24 "HgN/A
8:20 AM25 °FLight snow. Partly cloudy.5 mph86%29.24 "HgN/A
7:50 AM25 °FSnow. Passing clouds.2 mph93%29.21 "Hg1 mi
7:20 AM25 °FSnow. Partly cloudy.3 mph93%29.18 "Hg1 mi
6:50 AM25 °FSnow. Passing clouds.5 mph93%29.18 "Hg1 mi
6:20 AM25 °FLight snow. Ice fog.7 mph93%29.18 "HgN/A
5:50 AM25 °FSnow. Ice fog.6 mph93%29.18 "Hg1 mi
5:20 AM25 °FLight snow. Partly cloudy.6 mph93%29.15 "Hg4 mi
4:50 AM25 °FSnow. Partly cloudy.6 mph93%29.15 "Hg1 mi
4:20 AM25 °FSnow. Partly cloudy.6 mph93%29.15 "Hg1 mi
3:50 AM27 °FLight snow. Partly cloudy.7 mph86%29.15 "Hg1 mi
3:20 AM25 °FLight snow. Partly cloudy.7 mph93%29.15 "Hg5 mi
2:50 AM25 °FLight snow. Partly cloudy.6 mph93%29.15 "Hg3 mi
2:20 AM25 °FSnow flurries. Partly cloudy.3 mph93%29.12 "Hg2 mi
1:50 AM25 °FSnow flurries. Overcast.3 mph86%29.12 "HgN/A
1:20 AM25 °FPartly cloudy.5 mph86%29.15 "HgN/A
12:50 AM25 °FPassing clouds.5 mph86%29.15 "HgN/A
12:20 AM25 °FMostly cloudy.5 mph86%29.15 "HgN/A
11:50 PM
Jan 31
25 °FMostly cloudy.3 mph86%29.15 "HgN/A
11:20 PM25 °FPassing clouds.9 mph93%29.15 "HgN/A
10:50 PM27 °FPartly cloudy.12 mph86%29.15 "HgN/A
10:20 PM25 °FPassing clouds.8 mph93%29.15 "HgN/A
9:50 PM25 °FClear.7 mph93%29.12 "HgN/A
9:20 PM27 °FPassing clouds.8 mph86%29.15 "HgN/A
8:50 PM27 °FPartly cloudy.8 mph86%29.15 "HgN/A
8:20 PM27 °FPartly cloudy.8 mph86%29.12 "HgN/A
7:50 PM27 °FSnow flurries. Low clouds.5 mph93%29.12 "Hg2 mi
7:20 PM27 °FSnow flurries. Partly cloudy.6 mph93%29.12 "Hg3 mi
6:50 PM27 °FSnow flurries. Passing clouds.6 mph93%29.09 "HgN/A
6:20 PM27 °FPartly sunny.6 mph93%29.09 "HgN/A
5:50 PM28 °FSnow flurries. Partly sunny.5 mph86%29.09 "HgN/A
5:20 PM28 °FSnow flurries. Broken clouds.6 mph86%29.06 "HgN/A
4:50 PM28 °FLight snow. Broken clouds.5 mph86%29.06 "HgN/A
4:20 PM28 °FLight snow. Broken clouds.7 mph86%29.06 "Hg3 mi
3:50 PM28 °FLight snow. Broken clouds.6 mph93%29.03 "Hg3 mi
3:20 PM28 °FLight snow. Partly sunny.7 mph93%29.03 "Hg3 mi
Weather by CustomWeather, © 2014

See weather overviewHow to use our weather pages